| time (UTC) | temp F | wind direction | speed knots | gust knots | rain 1hr in | rain 24hr in | rain mn in | humidity % | barometer mb |
| 20260506165011 | 62 | 49 | 0.9 | 2.6 | 0.00 | 0.00 | 0.00 | 43 | 1016.5 |
| 20260506164537 | 62 | 93 | 0.9 | 2.6 | 0.00 | 0.00 | 0.00 | 43 | 1016.4 |
| 20260506164012 | 61 | 95 | 1.7 | 2.6 | 0.00 | 0.00 | 0.00 | 42 | 1016.5 |
| 20260506163509 | 61 | 57 | 0.9 | 3.5 | 0.00 | 0.00 | 0.00 | 43 | 1016.5 |
| 20260506163035 | 60 | 98 | 0.9 | 3.5 | 0.00 | 0.00 | 0.00 | 42 | 1016.5 |
| 20260506162510 | 60 | 107 | 0.9 | 3.5 | 0.00 | 0.00 | 0.00 | 43 | 1016.5 |
| 20260506162011 | 60 | 93 | 0.9 | 2.6 | 0.00 | 0.00 | 0.00 | 45 | 1016.6 |
| 20260506161530 | 60 | 93 | 0.9 | 2.6 | 0.00 | 0.00 | 0.00 | 43 | 1016.5 |
| 20260506161010 | 59 | 108 | 1.7 | 2.6 | 0.00 | 0.00 | 0.00 | 44 | 1016.5 |
| 20260506160512 | 59 | 112 | 0.9 | 2.6 | 0.00 | 0.00 | 0.00 | 45 | 1016.5 |
| 20260506160035 | 59 | 115 | 0.9 | 2.6 | 0.00 | 0.00 | 0.00 | 45 | 1016.5 |
| 20260506155511 | 59 | 90 | 0.9 | 2.6 | 0.00 | 0.00 | 0.00 | 46 | 1016.6 |
| 20260506155012 | 59 | 96 | 0.9 | 2.6 | 0.00 | 0.00 | 0.00 | 46 | 1016.7 |
| 20260506154536 | 59 | 91 | 0.9 | 2.6 | 0.00 | 0.00 | 0.00 | 45 | 1016.6 |
| 20260506154014 | 59 | 103 | 0.9 | 2.6 | 0.00 | 0.00 | 0.00 | 45 | 1016.7 |
| 20260506153518 | 59 | 105 | 0.9 | 3.5 | 0.00 | 0.00 | 0.00 | 45 | 1016.6 |
| 20260506153030 | 59 | 99 | 0.9 | 3.5 | 0.00 | 0.00 | 0.00 | 44 | 1016.5 |
| 20260506152509 | 59 | 96 | 0.9 | 3.5 | 0.00 | 0.00 | 0.00 | 43 | 1016.6 |
| 20260506152015 | 59 | 84 | 0.9 | 2.6 | 0.00 | 0.00 | 0.00 | 45 | 1016.5 |
| 20260506151531 | 59 | 102 | 0.9 | 2.6 | 0.00 | 0.00 | 0.00 | 43 | 1016.6 |
| 20260506151012 | 60 | 101 | 0.9 | 2.6 | 0.00 | 0.00 | 0.00 | 42 | 1016.5 |
| 20260506150511 | 60 | 109 | 0.9 | 2.6 | 0.00 | 0.00 | 0.00 | 42 | 1016.6 |
| 20260506150033 | 61 | 78 | 0.9 | 2.6 | 0.00 | 0.00 | 0.00 | 43 | 1016.6 |
| 20260506145515 | 61 | 93 | 0.9 | 2.6 | 0.00 | 0.00 | 0.00 | 44 | 1016.7 |
| 20260506145013 | 61 | 66 | 0.9 | 2.6 | 0.00 | 0.00 | 0.00 | 44 | 1016.6 |
| 20260506144534 | 60 | 98 | 0.9 | 2.6 | 0.00 | 0.00 | 0.00 | 46 | 1016.5 |
| 20260506144015 | 60 | 66 | 0.0 | 1.7 | 0.00 | 0.00 | 0.00 | 45 | 1016.5 |
| 20260506143512 | 59 | 63 | 0.9 | 1.7 | 0.00 | 0.00 | 0.00 | 50 | 1016.5 |
| 20260506143033 | 59 | 103 | 0.9 | 2.6 | 0.00 | 0.00 | 0.00 | 49 | 1016.4 |
| 20260506142511 | 59 | 111 | 0.9 | 2.6 | 0.00 | 0.00 | 0.00 | 46 | 1016.5 |
| 20260506142013 | 59 | 63 | 0.0 | 1.7 | 0.00 | 0.00 | 0.00 | 49 | 1016.2 |
| 20260506141531 | 58 | 63 | 0.0 | 1.7 | 0.00 | 0.00 | 0.00 | 48 | 1016.1 |
| 20260506141014 | 58 | 65 | 0.0 | 1.7 | 0.00 | 0.00 | 0.00 | 47 | 1016.0 |
| 20260506140513 | 58 | 63 | 0.0 | 1.7 | 0.00 | 0.00 | 0.00 | 48 | 1016.0 |
| 20260506140030 | 57 | 50 | 0.0 | 1.7 | 0.00 | 0.00 | 0.00 | 48 | 1016.2 |
| 20260506135513 | 57 | 223 | 0.0 | 0.0 | 0.00 | 0.00 | 0.00 | 51 | 1016.0 |
| 20260506135012 | 56 | 223 | 0.0 | 0.0 | 0.00 | 0.00 | 0.00 | 49 | 1016.1 |
| 20260506134533 | 56 | 223 | 0.0 | 0.0 | 0.00 | 0.00 | 0.00 | 49 | 1016.0 |
| 20260506134017 | 56 | 223 | 0.0 | 0.0 | 0.00 | 0.00 | 0.00 | 47 | 1015.9 |
| 20260506133510 | 56 | 223 | 0.0 | 0.0 | 0.00 | 0.00 | 0.00 | 46 | 1016.0 |
| 20260506133034 | 56 | 223 | 0.0 | 0.0 | 0.00 | 0.00 | 0.00 | 46 | 1015.9 |
| 20260506132513 | 56 | 223 | 0.0 | 0.0 | 0.00 | 0.00 | 0.00 | 44 | 1016.0 |
| 20260506132010 | 56 | 223 | 0.0 | 0.9 | 0.00 | 0.00 | 0.00 | 45 | 1015.9 |
| 20260506131535 | 56 | 223 | 0.0 | 0.9 | 0.00 | 0.00 | 0.00 | 45 | 1015.9 |
| 20260506131014 | 56 | 223 | 0.0 | 0.9 | 0.00 | 0.00 | 0.00 | 44 | 1016.1 |
| 20260506130514 | 56 | 223 | 0.0 | 0.9 | 0.00 | 0.00 | 0.00 | 43 | 1016.0 |
| 20260506130031 | 55 | 223 | 0.0 | 0.0 | 0.00 | 0.00 | 0.00 | 42 | 1016.0 |
| 20260506125512 | 55 | 223 | 0.0 | 0.9 | 0.00 | 0.00 | 0.00 | 43 | 1016.0 |
| 20260506125013 | 55 | 223 | 0.0 | 0.9 | 0.00 | 0.00 | 0.00 | 43 | 1015.9 |
| 20260506124531 | 55 | 223 | 0.0 | 0.9 | 0.00 | 0.00 | 0.00 | 42 | 1015.9 |
| 20260506124015 | 55 | 223 | 0.0 | 0.9 | 0.00 | 0.00 | 0.00 | 42 | 1015.7 |
| 20260506123513 | 55 | 223 | 0.0 | 0.9 | 0.00 | 0.00 | 0.00 | 41 | 1015.7 |
| 20260506123032 | 55 | 223 | 0.0 | 1.7 | 0.00 | 0.00 | 0.00 | 43 | 1015.7 |
| 20260506122513 | 55 | 223 | 0.0 | 1.7 | 0.00 | 0.00 | 0.00 | 43 | 1015.7 |
| 20260506122013 | 55 | 223 | 0.9 | 1.7 | 0.00 | 0.00 | 0.00 | 44 | 1015.7 |
| 20260506121537 | 55 | 223 | 0.0 | 0.9 | 0.00 | 0.00 | 0.00 | 44 | 1015.7 |
| 20260506121013 | 55 | 223 | 0.0 | 1.7 | 0.00 | 0.00 | 0.00 | 44 | 1015.7 |
| 20260506120513 | 55 | 223 | 0.0 | 1.7 | 0.00 | 0.00 | 0.00 | 44 | 1015.7 |
| 20260506120041 | 55 | 223 | 0.0 | 0.9 | 0.00 | 0.00 | 0.00 | 44 | 1015.7 |
| 20260506115516 | 55 | 223 | 0.0 | 0.9 | 0.00 | 0.00 | 0.00 | 43 | 1015.9 |
| 20260506115014 | 56 | 223 | 0.0 | 0.9 | 0.00 | 0.00 | 0.00 | 42 | 1015.8 |
| 20260506114539 | 56 | 223 | 0.0 | 1.7 | 0.00 | 0.00 | 0.00 | 41 | 1015.8 |
| 20260506114013 | 56 | 223 | 0.0 | 1.7 | 0.00 | 0.00 | 0.00 | 41 | 1015.7 |
| 20260506113512 | 56 | 223 | 0.9 | 1.7 | 0.00 | 0.00 | 0.00 | 40 | 1015.8 |
| 20260506113043 | 56 | 223 | 0.9 | 1.7 | 0.00 | 0.00 | 0.00 | 40 | 1015.8 |
| 20260506112512 | 56 | 223 | 0.0 | 1.7 | 0.00 | 0.00 | 0.00 | 40 | 1015.8 |
| 20260506112014 | 56 | 223 | 0.9 | 1.7 | 0.00 | 0.00 | 0.00 | 40 | 1015.8 |
| 20260506111538 | 56 | 223 | 0.0 | 0.9 | 0.00 | 0.00 | 0.00 | 40 | 1015.8 |
| 20260506111012 | 56 | 221 | 0.0 | 1.7 | 0.00 | 0.00 | 0.00 | 41 | 1015.8 |
| 20260506110513 | 56 | 221 | 0.0 | 1.7 | 0.00 | 0.00 | 0.00 | 40 | 1015.9 |
| 20260506110037 | 57 | 221 | 0.0 | 1.7 | 0.00 | 0.00 | 0.00 | 40 | 1015.8 |
| 20260506105513 | 57 | 221 | 0.0 | 1.7 | 0.00 | 0.00 | 0.00 | 39 | 1015.9 |
| 20260506105013 | 57 | 221 | 0.0 | 1.7 | 0.00 | 0.00 | 0.00 | 38 | 1015.8 |
| 20260506104536 | 57 | 221 | 0.0 | 2.6 | 0.00 | 0.00 | 0.00 | 40 | 1015.8 |
| 20260506104012 | 57 | 229 | 0.9 | 2.6 | 0.00 | 0.00 | 0.00 | 40 | 1015.8 |
| 20260506103511 | 57 | 238 | 1.7 | 2.6 | 0.00 | 0.00 | 0.00 | 40 | 1015.7 |
| 20260506103052 | 57 | 236 | 0.9 | 2.6 | 0.00 | 0.00 | 0.00 | 40 | 1015.7 |
| 20260506102515 | 57 | 254 | 0.9 | 2.6 | 0.00 | 0.00 | 0.00 | 40 | 1015.7 |
| 20260506102014 | 57 | 244 | 0.9 | 2.6 | 0.00 | 0.00 | 0.00 | 40 | 1015.7 |
| 20260506101538 | 57 | 244 | 1.7 | 2.6 | 0.00 | 0.00 | 0.00 | 40 | 1015.8 |
| 20260506101013 | 57 | 242 | 1.7 | 2.6 | 0.00 | 0.00 | 0.00 | 40 | 1015.7 |
| 20260506100513 | 57 | 237 | 0.9 | 2.6 | 0.00 | 0.00 | 0.00 | 40 | 1015.7 |
| 20260506100039 | 57 | 225 | 0.9 | 2.6 | 0.00 | 0.00 | 0.00 | 41 | 1015.8 |
| 20260506095515 | 57 | 229 | 0.9 | 2.6 | 0.00 | 0.00 | 0.00 | 40 | 1015.8 |
| 20260506095014 | 57 | 240 | 0.9 | 2.6 | 0.00 | 0.00 | 0.00 | 41 | 1015.8 |
| 20260506094538 | 57 | 220 | 0.9 | 4.3 | 0.00 | 0.00 | 0.00 | 41 | 1015.8 |
| 20260506094014 | 57 | 246 | 0.9 | 4.3 | 0.00 | 0.00 | 0.00 | 41 | 1015.9 |
| 20260506093515 | 57 | 239 | 0.9 | 2.6 | 0.00 | 0.00 | 0.00 | 42 | 1015.9 |
| 20260506093042 | 57 | 246 | 0.9 | 2.6 | 0.00 | 0.00 | 0.00 | 43 | 1016.0 |
| 20260506092513 | 57 | 232 | 0.9 | 2.6 | 0.00 | 0.00 | 0.00 | 42 | 1016.0 |
| 20260506092015 | 57 | 219 | 0.9 | 2.6 | 0.00 | 0.00 | 0.00 | 43 | 1015.9 |
| 20260506091546 | 57 | 234 | 0.9 | 1.7 | 0.00 | 0.00 | 0.00 | 43 | 1016.0 |
| 20260506091013 | 57 | 222 | 0.9 | 1.7 | 0.00 | 0.00 | 0.00 | 43 | 1015.9 |
| 20260506090513 | 57 | 220 | 0.9 | 1.7 | 0.00 | 0.00 | 0.00 | 43 | 1015.9 |
| 20260506090038 | 57 | 217 | 0.9 | 2.6 | 0.00 | 0.00 | 0.00 | 43 | 1016.0 |
| 20260506085513 | 57 | 239 | 0.9 | 2.6 | 0.00 | 0.00 | 0.00 | 43 | 1015.9 |
| 20260506085013 | 58 | 234 | 0.9 | 2.6 | 0.00 | 0.00 | 0.00 | 43 | 1015.9 |
| 20260506084542 | 58 | 249 | 0.9 | 2.6 | 0.00 | 0.00 | 0.00 | 43 | 1015.7 |
| 20260506084014 | 58 | 225 | 0.9 | 2.6 | 0.00 | 0.00 | 0.00 | 43 | 1015.7 |
| 20260506083514 | 58 | 246 | 0.9 | 2.6 | 0.00 | 0.00 | 0.00 | 42 | 1015.7 |
| 20260506083036 | 58 | 196 | 0.9 | 1.7 | 0.00 | 0.00 | 0.00 | 42 | 1015.8 |
| 20260506082512 | 58 | 231 | 0.9 | 2.6 | 0.00 | 0.00 | 0.00 | 42 | 1015.7 |
| 20260506082013 | 58 | 249 | 0.9 | 2.6 | 0.00 | 0.00 | 0.00 | 41 | 1015.7 |
| 20260506081541 | 58 | 233 | 0.9 | 2.6 | 0.00 | 0.00 | 0.00 | 42 | 1015.8 |
| 20260506081017 | 59 | 236 | 0.9 | 2.6 | 0.00 | 0.00 | 0.00 | 42 | 1015.7 |
| 20260506080514 | 59 | 258 | 0.9 | 2.6 | 0.00 | 0.00 | 0.00 | 42 | 1015.7 |
| 20260506073513 | 60 | 241 | 0.0 | 0.9 | 0.00 | 0.00 | 0.00 | 40 | 1015.7 |
| 20260506073039 | 60 | 241 | 0.0 | 1.7 | 0.00 | 0.00 | 0.00 | 39 | 1015.7 |
| 20260506072513 | 60 | 241 | 0.0 | 1.7 | 0.00 | 0.00 | 0.00 | 39 | 1015.7 |
| 20260506072020 | 60 | 242 | 0.0 | 0.9 | 0.00 | 0.00 | 0.00 | 39 | 1015.8 |
| 20260506071536 | 60 | 242 | 0.0 | 1.7 | 0.00 | 0.00 | 0.00 | 39 | 1015.8 |
| 20260506071013 | 59 | 242 | 0.0 | 1.7 | 0.00 | 0.00 | 0.00 | 40 | 1015.9 |
| 20260506070515 | 59 | 243 | 0.9 | 1.7 | 0.00 | 0.00 | 0.00 | 40 | 1015.8 |
| 20260506062513 | 59 | 229 | 0.9 | 1.7 | 0.00 | 0.00 | 0.00 | 42 | 1015.7 |
| 20260506062013 | 59 | 229 | 0.9 | 1.7 | 0.00 | 0.00 | 0.00 | 43 | 1015.7 |
| 20260506061543 | 58 | 229 | 0.9 | 2.6 | 0.00 | 0.00 | 0.00 | 44 | 1015.7 |
| 20260506061013 | 58 | 231 | 0.9 | 2.6 | 0.00 | 0.00 | 0.00 | 44 | 1015.7 |
| 20260506060513 | 58 | 223 | 0.9 | 2.6 | 0.00 | 0.00 | 0.00 | 45 | 1015.7 |
| 20260506051013 | 60 | 238 | 0.9 | 1.7 | 0.00 | 0.00 | 0.00 | 45 | 1015.8 |
| 20260506050513 | 60 | 244 | 0.9 | 1.7 | 0.00 | 0.00 | 0.00 | 44 | 1015.8 |
| 20260506045014 | 60 | 247 | 0.9 | 1.7 | 0.00 | 0.00 | 0.00 | 45 | 1015.8 |
| 20260506044534 | 60 | 251 | 0.0 | 1.7 | 0.00 | 0.00 | 0.00 | 44 | 1015.7 |
| 20260506044014 | 60 | 248 | 0.9 | 1.7 | 0.00 | 0.00 | 0.00 | 44 | 1015.7 |
| 20260506043517 | 60 | 241 | 0.0 | 0.9 | 0.00 | 0.00 | 0.00 | 44 | 1015.7 |
| 20260506043035 | 60 | 241 | 0.0 | 0.9 | 0.00 | 0.00 | 0.00 | 44 | 1015.7 |
| 20260506042514 | 60 | 241 | 0.0 | 1.7 | 0.00 | 0.00 | 0.00 | 45 | 1015.6 |
| 20260506042014 | 60 | 241 | 0.0 | 1.7 | 0.00 | 0.00 | 0.00 | 45 | 1015.6 |
| 20260506041538 | 60 | 241 | 0.0 | 1.7 | 0.00 | 0.00 | 0.00 | 45 | 1015.6 |
| 20260506041013 | 60 | 242 | 0.9 | 1.7 | 0.00 | 0.00 | 0.00 | 44 | 1015.6 |
| 20260506040514 | 60 | 235 | 0.9 | 1.7 | 0.00 | 0.00 | 0.00 | 44 | 1015.5 |
| 20260506040038 | 59 | 234 | 0.0 | 0.9 | 0.00 | 0.00 | 0.00 | 45 | 1015.5 |
| 20260506035514 | 59 | 234 | 0.0 | 1.7 | 0.00 | 0.00 | 0.00 | 45 | 1015.4 |
| 20260506035015 | 59 | 234 | 0.0 | 1.7 | 0.00 | 0.00 | 0.00 | 46 | 1015.5 |
| 20260506034554 | 59 | 234 | 0.0 | 0.9 | 0.00 | 0.00 | 0.00 | 46 | 1015.5 |
| 20260506034013 | 59 | 234 | 0.0 | 0.9 | 0.00 | 0.00 | 0.00 | 45 | 1015.4 |
| 20260506033513 | 59 | 234 | 0.0 | 1.7 | 0.00 | 0.00 | 0.00 | 46 | 1015.5 |
| 20260506033036 | 59 | 234 | 0.0 | 1.7 | 0.00 | 0.00 | 0.00 | 46 | 1015.5 |
| 20260506032514 | 59 | 234 | 0.9 | 1.7 | 0.00 | 0.00 | 0.00 | 47 | 1015.5 |
| 20260506032016 | 59 | 234 | 0.9 | 1.7 | 0.00 | 0.00 | 0.00 | 46 | 1015.4 |
| 20260506031543 | 59 | 234 | 0.9 | 1.7 | 0.00 | 0.00 | 0.00 | 47 | 1015.3 |
| 20260506031014 | 60 | 234 | 0.9 | 1.7 | 0.00 | 0.00 | 0.00 | 47 | 1015.2 |
| 20260506030514 | 60 | 234 | 0.9 | 1.7 | 0.00 | 0.00 | 0.00 | 47 | 1015.2 |
| 20260506030041 | 60 | 234 | 0.9 | 1.7 | 0.00 | 0.00 | 0.00 | 46 | 1015.1 |
| 20260506025514 | 60 | 234 | 0.0 | 1.7 | 0.00 | 0.00 | 0.00 | 46 | 1015.1 |
| 20260506025013 | 60 | 234 | 0.9 | 1.7 | 0.00 | 0.00 | 0.00 | 46 | 1015.1 |
| 20260506024557 | 60 | 233 | 0.0 | 1.7 | 0.00 | 0.00 | 0.00 | 46 | 1015.1 |
| 20260506024016 | 60 | 233 | 0.9 | 1.7 | 0.00 | 0.00 | 0.00 | 46 | 1015.0 |
| 20260506023517 | 60 | 234 | 0.9 | 1.7 | 0.00 | 0.00 | 0.00 | 45 | 1015.1 |
| 20260506023037 | 60 | 234 | 0.0 | 1.7 | 0.00 | 0.00 | 0.00 | 46 | 1015.1 |
| 20260506022515 | 60 | 234 | 0.9 | 1.7 | 0.00 | 0.00 | 0.00 | 46 | 1015.0 |
| 20260506022014 | 61 | 234 | 0.0 | 2.6 | 0.00 | 0.00 | 0.00 | 47 | 1015.0 |
| 20260506021536 | 61 | 238 | 0.9 | 2.6 | 0.00 | 0.00 | 0.00 | 46 | 1015.1 |
| 20260506021020 | 62 | 229 | 0.0 | 1.7 | 0.00 | 0.00 | 0.00 | 45 | 1015.3 |
| 20260506020513 | 62 | 232 | 0.0 | 1.7 | 0.00 | 0.00 | 0.00 | 43 | 1015.3 |
| 20260506020042 | 62 | 218 | 0.0 | 1.7 | 0.00 | 0.00 | 0.00 | 45 | 1015.3 |
| 20260506015514 | 62 | 244 | 0.0 | 1.7 | 0.00 | 0.00 | 0.00 | 44 | 1015.2 |
| 20260506015014 | 62 | 317 | 0.0 | 1.7 | 0.00 | 0.00 | 0.00 | 44 | 1015.1 |
| 20260506014540 | 62 | 205 | 0.0 | 1.7 | 0.00 | 0.00 | 0.00 | 45 | 1015.1 |
| 20260506014014 | 62 | 215 | 0.0 | 1.7 | 0.00 | 0.00 | 0.00 | 45 | 1015.1 |
| 20260506013514 | 63 | 215 | 0.0 | 1.7 | 0.00 | 0.00 | 0.00 | 44 | 1015.1 |
| 20260506013058 | 63 | 211 | 0.0 | 3.5 | 0.00 | 0.00 | 0.00 | 43 | 1015.2 |
| 20260506012514 | 63 | 46 | 0.9 | 3.5 | 0.00 | 0.00 | 0.00 | 41 | 1015.1 |
| 20260506012018 | 63 | 207 | 0.0 | 1.7 | 0.00 | 0.00 | 0.00 | 42 | 1015.2 |
| 20260506011539 | 64 | 207 | 0.0 | 1.7 | 0.00 | 0.00 | 0.00 | 42 | 1015.3 |
| 20260506011017 | 64 | 192 | 0.0 | 1.7 | 0.00 | 0.00 | 0.00 | 41 | 1015.2 |
| 20260506010518 | 64 | 194 | 0.0 | 1.7 | 0.00 | 0.00 | 0.00 | 40 | 1015.3 |
| 20260506010044 | 65 | 194 | 0.0 | 1.7 | 0.00 | 0.00 | 0.00 | 40 | 1015.0 |
| 20260506005515 | 65 | 194 | 0.0 | 1.7 | 0.00 | 0.00 | 0.00 | 39 | 1015.1 |
| 20260506005017 | 65 | 169 | 0.0 | 1.7 | 0.00 | 0.00 | 0.00 | 38 | 1015.2 |
| 20260506004538 | 66 | 168 | 0.9 | 1.7 | 0.00 | 0.00 | 0.00 | 39 | 1015.3 |
| 20260506004014 | 66 | 92 | 0.0 | 1.7 | 0.00 | 0.00 | 0.00 | 38 | 1015.2 |
| 20260506003516 | 67 | 173 | 0.0 | 1.7 | 0.00 | 0.00 | 0.00 | 38 | 1015.3 |
| 20260506003040 | 67 | 143 | 0.0 | 1.7 | 0.00 | 0.00 | 0.00 | 35 | 1015.2 |
| 20260506002514 | 67 | 143 | 0.0 | 1.7 | 0.00 | 0.00 | 0.00 | 38 | 1015.1 |
| 20260506002015 | 68 | 143 | 0.0 | 1.7 | 0.00 | 0.00 | 0.00 | 35 | 1015.1 |
| 20260506001541 | 68 | 143 | 0.0 | 1.7 | 0.00 | 0.00 | 0.00 | 36 | 1015.2 |
| 20260506001014 | 68 | 247 | 0.0 | 2.6 | 0.00 | 0.00 | 0.00 | 36 | 1015.3 |
| 20260506000515 | 68 | 200 | 0.9 | 2.6 | 0.00 | 0.00 | 0.00 | 34 | 1015.2 |
| 20260506000037 | 68 | 98 | 0.0 | 2.6 | 0.00 | 0.00 | 0.00 | 34 | 1015.3 |
| 20260505235516 | 68 | 99 | 0.0 | 2.6 | 0.00 | 0.00 | 0.00 | 34 | 1015.4 |
| 20260505235015 | 68 | 96 | 0.0 | 1.7 | 0.00 | 0.00 | 0.00 | 37 | 1015.4 |
| 20260505234538 | 68 | 112 | 0.0 | 2.6 | 0.00 | 0.00 | 0.00 | 36 | 1015.4 |
| 20260505234015 | 68 | 115 | 0.9 | 2.6 | 0.00 | 0.00 | 0.00 | 34 | 1015.5 |
| 20260505233515 | 68 | 132 | 0.0 | 1.7 | 0.00 | 0.00 | 0.00 | 35 | 1015.4 |
| 20260505233038 | 68 | 42 | 0.9 | 1.7 | 0.00 | 0.00 | 0.00 | 36 | 1015.6 |
| 20260505232514 | 68 | 79 | 0.9 | 1.7 | 0.00 | 0.00 | 0.00 | 34 | 1015.5 |
| 20260505232017 | 68 | 86 | 0.0 | 2.6 | 0.00 | 0.00 | 0.00 | 37 | 1015.5 |
| 20260505231542 | 68 | 74 | 0.9 | 2.6 | 0.00 | 0.00 | 0.00 | 34 | 1015.7 |
| 20260505231017 | 68 | 120 | 0.9 | 2.6 | 0.00 | 0.00 | 0.00 | 36 | 1015.7 |
| 20260505230517 | 68 | 113 | 0.9 | 2.6 | 0.00 | 0.00 | 0.00 | 34 | 1015.7 |
| 20260505230052 | 68 | 87 | 0.0 | 2.6 | 0.00 | 0.00 | 0.00 | 34 | 1015.6 |
| 20260505225516 | 68 | 128 | 0.9 | 3.5 | 0.00 | 0.00 | 0.00 | 34 | 1015.7 |
| 20260505225015 | 68 | 98 | 0.9 | 3.5 | 0.00 | 0.00 | 0.00 | 35 | 1015.8 |
| 20260505224539 | 67 | 56 | 0.0 | 3.5 | 0.00 | 0.00 | 0.00 | 34 | 1015.7 |
| 20260505224015 | 67 | 113 | 0.9 | 2.6 | 0.00 | 0.00 | 0.00 | 34 | 1015.8 |
| 20260505223515 | 68 | 101 | 1.7 | 3.5 | 0.00 | 0.00 | 0.00 | 35 | 1015.9 |
| 20260505223055 | 68 | 40 | 1.7 | 3.5 | 0.00 | 0.00 | 0.00 | 33 | 1015.9 |
| 20260505222515 | 68 | 71 | 0.9 | 3.5 | 0.00 | 0.00 | 0.00 | 37 | 1015.9 |
| 20260505222015 | 68 | 90 | 0.9 | 4.3 | 0.00 | 0.00 | 0.00 | 35 | 1016.0 |
| 20260505221538 | 67 | 98 | 1.7 | 4.3 | 0.00 | 0.00 | 0.00 | 36 | 1015.9 |
| 20260505221016 | 67 | 114 | 0.0 | 2.6 | 0.00 | 0.00 | 0.00 | 34 | 1016.0 |
| 20260505220515 | 67 | 91 | 0.9 | 2.6 | 0.00 | 0.00 | 0.00 | 35 | 1016.2 |
| 20260505220043 | 67 | 94 | 0.9 | 2.6 | 0.00 | 0.00 | 0.00 | 34 | 1016.2 |
| 20260505215515 | 67 | 105 | 0.9 | 2.6 | 0.00 | 0.00 | 0.00 | 35 | 1016.2 |
| 20260505215015 | 67 | 90 | 0.9 | 2.6 | 0.00 | 0.00 | 0.00 | 37 | 1016.2 |
| 20260505214537 | 66 | 42 | 0.0 | 2.6 | 0.00 | 0.00 | 0.00 | 36 | 1016.2 |
| 20260505214018 | 66 | 96 | 1.7 | 2.6 | 0.00 | 0.00 | 0.00 | 35 | 1016.3 |
| 20260505213514 | 66 | 61 | 0.9 | 3.5 | 0.00 | 0.00 | 0.00 | 35 | 1016.3 |
| 20260505213050 | 67 | 96 | 1.7 | 3.5 | 0.00 | 0.00 | 0.00 | 35 | 1016.5 |
| 20260505212519 | 67 | 55 | 1.7 | 5.2 | 0.00 | 0.00 | 0.00 | 35 | 1016.4 |
| 20260505212018 | 67 | 98 | 1.7 | 5.2 | 0.00 | 0.00 | 0.00 | 36 | 1016.4 |
| 20260505211542 | 67 | 148 | 0.9 | 2.6 | 0.00 | 0.00 | 0.00 | 38 | 1016.5 |
| 20260505211015 | 66 | 44 | 0.9 | 3.5 | 0.00 | 0.00 | 0.00 | 38 | 1016.6 |
| 20260505210518 | 66 | 80 | 0.9 | 3.5 | 0.00 | 0.00 | 0.00 | 35 | 1016.5 |
| 20260505210038 | 66 | 102 | 0.9 | 3.5 | 0.00 | 0.00 | 0.00 | 34 | 1016.7 |
| 20260505205517 | 66 | 106 | 1.7 | 2.6 | 0.00 | 0.00 | 0.00 | 36 | 1016.6 |
| 20260505205015 | 65 | 92 | 0.9 | 3.5 | 0.00 | 0.00 | 0.00 | 40 | 1016.6 |
| 20260505204548 | 65 | 37 | 1.7 | 3.5 | 0.00 | 0.00 | 0.00 | 37 | 1016.6 |
| 20260505204017 | 65 | 305 | 0.9 | 3.5 | 0.00 | 0.00 | 0.00 | 37 | 1016.7 |
| 20260505203516 | 65 | 94 | 0.9 | 3.5 | 0.00 | 0.00 | 0.00 | 36 | 1016.7 |
| 20260505203046 | 65 | 106 | 1.7 | 3.5 | 0.00 | 0.00 | 0.00 | 39 | 1017.0 |
| 20260505202515 | 64 | 105 | 1.7 | 3.5 | 0.00 | 0.00 | 0.00 | 37 | 1016.8 |
| 20260505202018 | 64 | 102 | 1.7 | 4.3 | 0.00 | 0.00 | 0.00 | 37 | 1016.8 |
| 20260505201543 | 64 | 46 | 1.7 | 4.3 | 0.00 | 0.00 | 0.00 | 39 | 1016.7 |
| 20260505201015 | 65 | 87 | 0.9 | 2.6 | 0.00 | 0.00 | 0.00 | 36 | 1016.8 |
| 20260505200703 | 65 | 107 | 0.9 | 4.3 | 0.00 | 0.00 | 0.00 | 37 | 1017.0 |
| 20260505200051 | 65 | 88 | 0.9 | 4.3 | 0.00 | 0.00 | 0.00 | 37 | 1017.0 |
| 20260505195520 | 65 | 59 | 1.7 | 3.5 | 0.00 | 0.00 | 0.00 | 39 | 1017.0 |
| 20260505195018 | 65 | 107 | 0.9 | 3.5 | 0.00 | 0.00 | 0.00 | 39 | 1017.0 |
| 20260505194604 | 64 | 42 | 1.7 | 3.5 | 0.00 | 0.00 | 0.00 | 39 | 1016.9 |
| 20260505194020 | 64 | 62 | 0.9 | 3.5 | 0.00 | 0.00 | 0.00 | 39 | 1017.1 |
| 20260505193522 | 63 | 139 | 1.7 | 4.3 | 0.00 | 0.00 | 0.00 | 39 | 1017.0 |
| 20260505193055 | 64 | 84 | 2.6 | 4.3 | 0.00 | 0.00 | 0.00 | 38 | 1017.3 |
| 20260505192519 | 64 | 55 | 1.7 | 3.5 | 0.00 | 0.00 | 0.00 | 41 | 1017.1 |
| 20260505192018 | 64 | 84 | 0.9 | 3.5 | 0.00 | 0.00 | 0.00 | 42 | 1017.2 |
| 20260505191600 | 64 | 92 | 0.9 | 3.5 | 0.00 | 0.00 | 0.00 | 42 | 1017.2 |
| 20260505191023 | 64 | 248 | 0.0 | 3.5 | 0.00 | 0.00 | 0.00 | 39 | 1017.1 |
| 20260505190524 | 63 | 98 | 1.7 | 3.5 | 0.00 | 0.00 | 0.00 | 41 | 1017.3 |
| 20260505190052 | 63 | 68 | 0.9 | 3.5 | 0.00 | 0.00 | 0.00 | 42 | 1017.2 |
| 20260505185527 | 63 | 30 | 0.9 | 4.3 | 0.00 | 0.00 | 0.00 | 42 | 1017.2 |
| 20260505185015 | 63 | 37 | 1.7 | 4.3 | 0.00 | 0.00 | 0.00 | 42 | 1017.2 |
| 20260505184548 | 62 | 352 | 0.0 | 3.5 | 0.00 | 0.00 | 0.00 | 45 | 1017.3 |
| 20260505184020 | 62 | 268 | 0.9 | 3.5 | 0.00 | 0.00 | 0.00 | 40 | 1017.3 |
| 20260505183520 | 63 | 270 | 1.7 | 3.5 | 0.00 | 0.00 | 0.00 | 40 | 1017.3 |
| 20260505183058 | 63 | 64 | 0.9 | 5.2 | 0.00 | 0.00 | 0.00 | 44 | 1017.4 |
| 20260505182519 | 63 | 36 | 2.6 | 5.2 | 0.00 | 0.00 | 0.00 | 46 | 1017.3 |
| 20260505182022 | 62 | 67 | 0.9 | 3.5 | 0.00 | 0.00 | 0.00 | 44 | 1017.2 |
| 20260505181553 | 62 | 24 | 1.7 | 3.5 | 0.00 | 0.00 | 0.00 | 44 | 1017.3 |
| 20260505181018 | 62 | 34 | 0.9 | 3.5 | 0.00 | 0.00 | 0.00 | 45 | 1017.1 |
| 20260505180522 | 62 | 94 | 1.7 | 3.5 | 0.00 | 0.00 | 0.00 | 43 | 1017.2 |
| 20260505180058 | 62 | 85 | 0.9 | 3.5 | 0.00 | 0.00 | 0.00 | 45 | 1017.1 |
| 20260505175518 | 62 | 32 | 1.7 | 3.5 | 0.00 | 0.00 | 0.00 | 43 | 1017.1 |
| 20260505175018 | 62 | 203 | 0.9 | 3.5 | 0.00 | 0.00 | 0.00 | 42 | 1017.0 |
| 20260505174552 | 61 | 114 | 0.9 | 3.5 | 0.00 | 0.00 | 0.00 | 42 | 1017.1 |
| 20260505174022 | 61 | 42 | 0.9 | 3.5 | 0.00 | 0.00 | 0.00 | 43 | 1017.0 |
| 20260505173519 | 61 | 106 | 0.0 | 2.6 | 0.00 | 0.00 | 0.00 | 41 | 1016.9 |
| 20260505173051 | 61 | 69 | 0.9 | 3.5 | 0.00 | 0.00 | 0.00 | 42 | 1017.0 |
| 20260505172518 | 60 | 73 | 1.7 | 3.5 | 0.00 | 0.00 | 0.00 | 42 | 1017.1 |
| 20260505172017 | 60 | 38 | 0.9 | 3.5 | 0.00 | 0.00 | 0.00 | 41 | 1017.0 |
| 20260505171550 | 60 | 106 | 0.9 | 5.2 | 0.00 | 0.00 | 0.00 | 38 | 1016.9 |
| 20260505171016 | 60 | 98 | 1.7 | 5.2 | 0.00 | 0.00 | 0.00 | 41 | 1017.0 |
| 20260505170518 | 60 | 26 | 0.9 | 2.6 | 0.00 | 0.00 | 0.00 | 40 | 1017.1 |
| 20260505170053 | 60 | 104 | 1.7 | 3.5 | 0.00 | 0.00 | 0.00 | 41 | 1017.1 |
| 20260505165521 | 61 | 108 | 1.7 | 3.5 | 0.00 | 0.00 | 0.00 | 41 | 1017.0 |